Santiago, Dominican Republic

10:26 AM AST on October 01, 2016 (GMT -0400)
Cibao International

Weather History for MDST - March, 2013

Change the Weather History Date:

Thursday, March 7, 2013

  Actual Average Record
Temperature  
Mean Temperature 77 °F -  
Max Temperature 86 °F 85 °F 89 °F (2003)
Min Temperature 68 °F 67 °F 60 °F (2009)
Cooling Degree Days 12    
Growing Degree Days 27 (Base 50)    
Moisture  
Dew Point 67 °F    
Average Humidity 75    
Maximum Humidity 100    
Minimum Humidity 44    
Precipitation  
Precipitation 0.00 in - - ()
Sea Level Pressure  
Sea Level Pressure 30.01 in    
Wind  
Wind Speed 3 mph ()    
Max Wind Speed 14 mph    
Max Gust Speed -    
Visibility 6.1 miles    
Events      
Averages and records for this station are not official NWS values.
T = Trace of Precipitation, MM = Missing Value Source: Averaged Metar Reports

Daily Weather History Graph

Daily Weather History Graph

Search for Another Location

Airport or City:

Trip Planner

Search our weather history database for the weather conditions in past years. The results will help you decide how hot, cold, wet, or windy it might be!

Date:

Astronomy

Mar. 07, 2013 Rise Set
Actual Time 6:57 AM AST 6:49 PM AST
Civil Twilight 6:35 AM AST 7:11 PM AST
Nautical Twilight 6:09 AM AST 7:37 PM AST
Astronomical Twilight 5:44 AM AST 8:02 PM AST
Moon 3:25 AM AST (3/7) 3:00 PM AST (3/7)
Length of Visible Light 12h 36m
Length of Day
11h 52m
Waning Crescent, 20% of the Moon is Illuminated
Mar 7
Waning Crescent
Mar 11
New
Mar 19
First Quarter
Mar 27
Full
Apr 3
Last Quarter

Hourly Weather History & Observations

Time (AST) Temp. Heat Index Dew Point Humidity Pressure Visibility Wind Dir Wind Speed Gust Speed Precip Events Conditions
12:00 AM 73.4 °F - 66.2 °F 78% 30.04 in 6.2 mi Calm Calm - N/A   Partly Cloudy
1:00 AM 73.4 °F - 68.0 °F 83% 30.04 in 6.2 mi Calm Calm - N/A   Partly Cloudy
2:00 AM 72 °F - 68 °F 83% 30.02 in 5 mi Calm Calm - -   Haze
2:00 AM 71.6 °F - 68.0 °F 88% 30.01 in 6.2 mi Calm Calm - N/A   Partly Cloudy
3:00 AM 71.6 °F - 68.0 °F 88% 29.98 in 6.2 mi Variable 3.5 mph - N/A   Partly Cloudy
4:00 AM 71.6 °F - 68.0 °F 88% 29.98 in 6.2 mi Calm Calm - N/A   Scattered Clouds
5:00 AM 69 °F - 69 °F 99% 29.99 in 5 mi Calm Calm - -   Haze
5:00 AM 69.8 °F - 68.0 °F 94% 29.98 in 6.2 mi Calm Calm - N/A   Scattered Clouds
6:00 AM 69.8 °F - 68.0 °F 94% 29.98 in 6.2 mi Calm Calm - N/A   Scattered Clouds
7:00 AM 69.8 °F - 68.0 °F 94% 30.01 in 6.2 mi Variable 3.5 mph - N/A   Scattered Clouds
8:00 AM 68.0 °F - 68.0 °F 100% 30.04 in 6.2 mi Calm Calm - N/A   Scattered Clouds
9:00 AM 75.2 °F - 68.0 °F 78% 30.04 in 6.2 mi WNW 11.5 mph - N/A   Scattered Clouds
10:00 AM 78.8 °F - 68.0 °F 69% 30.04 in 6.2 mi NW 9.2 mph - N/A   Partly Cloudy
11:00 AM 80.6 °F 82.7 °F 66.2 °F 61% 30.04 in 6.2 mi NNW 6.9 mph - N/A   Mostly Cloudy
12:00 PM 84.2 °F 85.6 °F 64.4 °F 51% 30.04 in 6.2 mi West 4.6 mph - N/A   Mostly Cloudy
1:00 PM 84.2 °F 85.6 °F 64.4 °F 51% 30.01 in 6.2 mi NW 4.6 mph - N/A   Mostly Cloudy
2:00 PM 83 °F - 65 °F 44% 30.00 in 6 mi ENE 13.4 mph - -   Haze
2:00 PM 82.4 °F 83.9 °F 64.4 °F 54% 29.98 in 6.2 mi ENE 13.8 mph - N/A   Mostly Cloudy
3:00 PM 80.6 °F 82.3 °F 64.4 °F 58% 29.98 in 6.2 mi ENE 9.2 mph - N/A   Mostly Cloudy
4:00 PM 78.8 °F - 66.2 °F 65% 29.98 in 6.2 mi North 8.1 mph - N/A   Mostly Cloudy
5:00 PM 78.8 °F - 66.2 °F 65% 29.98 in 6.2 mi North 9.2 mph - N/A   Mostly Cloudy
6:00 PM 77.0 °F - 66.2 °F 69% 29.98 in 6.2 mi North 9.2 mph - N/A   Mostly Cloudy
7:00 PM 75.2 °F - 66.2 °F 73% 30.01 in 6.2 mi North 10.4 mph - N/A   Overcast
8:00 PM 75.2 °F - 66.2 °F 73% 30.01 in 6.2 mi NW 4.6 mph - N/A   Mostly Cloudy
9:00 PM 73.4 °F - 66.2 °F 78% 30.04 in 6.2 mi NW 5.8 mph - N/A   Mostly Cloudy
10:00 PM 73.4 °F - 66.2 °F 78% 30.06 in 6.2 mi NNW 6.9 mph - N/A   Mostly Cloudy
11:00 PM 73.4 °F - 66.2 °F 78% 30.06 in 6.2 mi West 6.9 mph - N/A   Mostly Cloudy